Wind_Speed
103 108 92 86 95 97 97 93 93 93 96 92 94 85 79 84 81 74 72 68 65 61 72 79 84 85 88 89 88 81 83 82 81 75 71 68 65 62 60 57 54 53 53 53
99 96 86 99 96 92 91 89 87 91 90 87 85 80 78 79 74 72 73 67 67 64 71 80 85 87 90 92 88 81 83 84 83 81 74 72 69 66 60 56 53 53 55 55
96 81 92 90 88 87 88 85 88 88 89 82 80 72 73 74 71 70 70 67 69 65 69 80 84 87 92 93 89 81 85 86 84 84 77 74 72 67 60 58 58 58 54 51
88 79 85 87 84 82 81 84 87 85 85 75 79 64 69 73 62 66 69 68 71 68 69 80 86 87 92 91 90 62 81 86 86 86 81 77 74 71 70 65 61 56 51 51
73 80 83 83 76 80 75 82 82 84 78 74 67 61 64 67 60 65 68 70 74 76 78 83 90 89 94 95 92 90 88 86 88 89 85 80 77 73 71 65 60 57 55 54
80 80 80 73 80 76 79 78 77 76 70 60 55 58 56 64 67 70 74 76 77 80 80 84 89 93 95 98 93 88 81 80 87 91 89 82 80 76 71 68 64 60 58 59
83 82 80 74 75 76 74 70 71 68 58 41 64 59 49 64 68 74 81 79 78 75 75 79 85 90 93 99 99 98 89 86 87 92 91 86 82 79 74 71 67 62 61 60
78 79 78 74 73 77 76 70 68 63 55 62 66 57 51 60 72 83 79 75 71 69 71 76 81 89 89 97 100 104 102 91 93 93 90 89 86 81 77 74 71 66 65 61
73 76 76 75 78 76 70 56 56 58 55 56 52 48 55 65 77 78 74 72 67 69 71 76 83 89 88 96 100 101 104 105 98 95 92 90 89 83 79 77 75 71 68 64
64 69 74 80 77 66 61 59 58 52 52 50 50 49 57 73 76 71 68 66 68 70 70 73 79 86 88 97 99 102 107 105 102 99 94 93 91 85 82 79 77 74 71 69
57 65 74 73 68 70 66 60 54 54 50 49 54 56 70 75 66 66 66 66 66 69 70 74 74 84 86 95 98 98 99 102 101 98 97 95 90 86 82 80 76 75 75 75
55 60 70 69 74 65 62 56 54 50 51 53 57 65 70 72 65 65 65 64 64 66 70 73 77 83 87 91 94 94 99 100 97 96 96 90 91 83 78 77 76 77 75 75
49 58 65 71 73 69 60 53 52 51 50 49 53 66 69 68 68 69 66 63 61 61 68 73 76 77 81 86 94 97 99 99 97 95 94 92 88 78 75 72 73 74 74 75
46 56 63 71 64 51 48 48 46 45 44 49 55 66 63 66 65 66 65 59 58 63 69 72 75 77 81 83 94 99 100 101 98 93 93 89 84 81 78 74 72 74 76 74
44 50 58 62 57 52 50 48 47 48 47 48 60 61 63 65 65 66 65 58 60 63 66 67 76 74 83 87 94 97 96 96 95 93 92 89 85 78 79 76 78 78 78 78
40 49 53 56 51 50 51 53 50 51 52 58 58 61 63 65 68 69 63 56 57 61 62 64 71 75 76 90 97 103 109 99 99 98 92 85 79 84 78 80 78 80 82 83
39 44 48 50 51 52 55 57 57 56 60 63 60 69 71 69 65 61 56 52 56 60 58 61 65 67 70 92 100 105 102 103 94 94 89 84 80 79 78 77 84 84 83 82
36 40 44 47 51 57 58 58 56 60 63 65 69 71 69 65 60 57 52 50 52 51 50 53 52 60 68 95 101 102 100 104 101 95 98 90 81 78 80 81 81 83 85 84
32 39 41 47 52 58 54 58 58 62 62 65 66 66 64 58 55 56 51 47 46 47 43 42 45 55 65 94 100 98 104 101 100 97 97 91 87 89 89 85 83 84 85 84
35 38 38 49 58 55 57 61 62 63 64 65 65 64 60 57 56 50 46 45 45 41 43 42 41 53 68 88 99 102 102 102 92 93 90 92 92 90 91 91 91 90 88 86
43 45 50 58 58 59 61 60 63 65 65 65 64 61 57 54 45 43 40 41 42 41 44 44 40 53 68 87 99 106 107 96 87 90 93 94 94 94 96 96 93 90 90 92
44 51 57 64 62 64 65 65 65 63 62 63 61 58 54 48 43 43 41 40 38 39 40 42 42 54 66 83 94 109 108 106 100 98 92 95 96 93 94 94 92 90 90 89
42 46 56 66 65 64 65 65 63 63 61 60 58 54 50 47 44 42 40 38 38 37 39 42 44 54 64 74 84 108 112 98 103 99 96 99 93 94 93 90 89 93 93 97
42 49 65 69 65 64 65 65 63 62 59 58 53 50 48 45 41 40 36 34 34 32 36 40 46 52 62 68 68 92 103 100 106 106 97 96 95 96 98 95 99 97 103 105
47 57 71 70 68 67 65 61 58 58 57 53 49 47 46 44 40 36 32 32 31 30 34 43 50 54 60 62 65 76 107 98 99 105 106 101 97 98 100 99 102 103 107 106
52 65 72 69 65 63 61 60 56 55 53 50 48 47 45 42 37 32 29 26 28 34 43 51 58 60 63 65 64 66 94 96 102 98 102 104 102 94 98 88 100 96 102 108
Wind_Direction
262 261 264 264 260 256 254 252 253 253 253 252 253 250 253 249 249 252 249 246 242 230 221 223 220 220 220 223 224 223 225 225 224 224 228 229 231 229 231 231 233 234 237 240
261 260 261 257 256 255 253 252 252 252 252 252 250 248 248 247 248 247 245 245 242 235 221 221 220 219 218 219 220 223 224 225 225 224 227 229 231 231 232 233 234 235 238 239
264 262 256 258 256 254 252 251 251 251 250 247 246 242 246 246 244 242 243 242 241 235 222 220 221 219 216 218 217 222 223 225 224 225 225 230 231 233 231 231 232 233 235 239
261 259 257 255 255 256 252 251 250 249 248 244 243 235 242 244 241 240 240 238 240 233 223 217 220 217 217 214 214 220 233 225 226 223 222 228 229 230 230 230 233 236 236 240
261 254 253 253 254 251 250 249 247 246 244 240 238 230 240 243 241 240 238 235 233 229 221 214 216 216 215 213 212 207 222 229 225 223 221 225 229 230 232 233 235 237 237 239
256 254 252 251 249 250 248 247 246 245 242 236 242 229 235 246 241 238 234 231 230 229 220 215 216 216 213 212 211 208 215 221 224 225 222 223 228 229 231 233 233 236 238 242
250 252 250 249 248 248 247 245 245 242 240 226 239 225 230 235 236 235 233 228 228 228 221 216 217 219 215 213 209 208 208 219 223 223 221 221 226 229 230 232 234 236 240 243
248 247 250 250 248 247 244 241 239 239 231 225 234 223 228 230 232 232 228 227 227 225 222 216 216 220 218 214 212 210 210 217 223 224 221 221 224 228 230 232 233 236 240 243
243 243 243 244 244 244 245 242 243 235 226 225 228 225 224 228 230 230 225 226 225 223 219 216 215 218 217 217 216 212 208 214 217 221 220 221 224 226 229 232 234 237 239 242
240 238 237 239 241 241 243 239 233 230 228 228 228 217 220 227 228 228 225 223 222 218 218 216 215 220 217 214 217 216 214 215 221 222 221 221 223 225 229 232 236 238 241 243
237 232 232 235 239 239 237 233 231 226 223 221 217 208 218 226 225 224 224 221 220 217 216 216 213 217 220 218 216 218 219 218 222 223 223 223 223 227 229 233 236 240 242 245
228 226 228 228 234 235 233 228 224 221 219 216 209 212 220 224 222 222 222 220 219 216 216 218 215 217 219 220 220 219 217 219 222 222 223 224 224 227 230 234 237 240 242 246
226 223 223 224 227 228 226 224 220 217 214 214 213 218 218 221 222 223 220 218 217 215 215 218 218 217 215 218 220 219 217 218 219 222 224 226 224 224 227 230 235 239 242 246
222 222 221 223 223 221 220 221 218 217 213 212 211 216 219 221 221 223 224 218 213 216 215 217 216 215 216 215 217 216 215 217 220 221 225 226 224 223 224 227 232 235 238 241
222 222 221 222 219 217 217 216 215 211 208 205 214 216 215 217 218 222 224 218 217 218 218 218 217 216 218 214 215 214 214 217 220 221 225 228 227 229 230 233 235 237 239 241
220 220 219 219 213 214 213 211 209 206 201 206 207 215 216 217 218 221 223 218 217 221 219 222 218 218 221 216 212 206 210 213 220 223 228 226 230 233 235 238 238 240 242 244
218 214 216 213 208 207 207 206 202 200 200 204 203 211 213 215 218 222 223 220 219 222 221 220 224 225 221 216 209 210 209 212 218 221 223 229 227 232 236 240 240 242 244 247
218 208 210 204 202 205 204 204 199 199 199 201 203 210 214 216 217 220 220 220 221 226 226 224 229 227 219 209 208 209 208 209 213 217 224 227 225 230 236 243 244 246 248 249
205 207 204 196 199 200 199 201 199 200 199 203 208 212 214 216 217 220 221 221 222 225 229 232 237 230 220 206 206 207 210 214 216 223 226 227 230 236 240 243 246 250 254 254
192 196 193 192 196 191 194 198 199 199 199 204 208 211 212 214 217 219 221 224 224 223 225 231 235 227 215 204 204 205 206 213 219 221 221 226 229 234 240 244 246 251 253 258
188 183 184 184 190 188 192 197 199 198 199 202 206 209 210 216 219 220 223 224 224 223 222 225 232 222 212 203 203 204 206 207 215 217 223 232 233 236 241 243 247 250 255 258
187 183 182 179 186 188 191 195 198 198 200 202 205 206 208 211 215 218 219 221 225 228 224 230 229 216 208 205 206 206 209 212 215 223 227 234 232 235 241 244 248 253 255 258
189 182 181 179 184 186 191 194 197 198 199 200 202 203 205 209 211 215 217 220 225 226 223 225 219 210 204 203 207 207 211 212 217 222 227 227 229 236 240 244 248 249 250 256
184 180 180 179 183 185 191 193 195 197 199 200 199 202 204 208 210 213 214 219 222 223 220 215 206 204 200 201 200 208 206 212 218 219 221 230 237 239 242 245 250 249 253 255
176 176 181 180 180 185 189 191 195 197 199 198 196 201 204 205 206 210 215 221 220 220 208 197 192 189 190 191 195 207 207 213 220 223 228 231 235 239 242 246 248 250 255 256
177 177 181 181 179 183 184 189 191 196 196 194 195 200 203 206 204 210 216 223 218 209 201 193 189 190 191 192 191 203 212 213 217 221 226 229 231 235 239 244 245 248 253 256
Height
10411 10394 10422 10447 10434 10439 10441 10450 10461 10469 10472 10481 10490 10502 10509 10514 10524 10535 10541 10547 10553 10562 10567 10575 10587 10598 10610 10622 10633 10644 10655 10667 10679 10689 10696 10702 10707 10712 10717 10723 10729 10734 10737 10739
10372 10378 10412 10390 10393 10407 10416 10425 10438 10438 10447 10455 10464 10477 10485 10495 10510 10516 10520 10530 10536 10541 10553 10560 10569 10581 10595 10610 10624 10633 10642 10652 10663 10673 10682 10689 10695 10702 10710 10715 10720 10723 10725 10728
10336 10374 10362 10360 10370 10380 10392 10403 10408 10412 10416 10429 10439 10458 10467 10476 10486 10495 10503 10509 10515 10523 10533 10544 10554 10565 10576 10593 10612 10619 10627 10637 10647 10659 10669 10678 10686 10694 10701 10703 10705 10708 10714 10721
10312 10342 10333 10334 10344 10357 10368 10377 10379 10388 10392 10412 10414 10443 10449 10454 10471 10478 10483 10490 10493 10502 10510 10522 10533 10547 10562 10577 10594 10607 10613 10625 10633 10644 10654 10664 10672 10678 10682 10688 10695 10702 10708 10712
10308 10298 10301 10305 10332 10325 10346 10344 10354 10363 10376 10385 10404 10422 10440 10439 10452 10456 10461 10465 10468 10471 10480 10495 10507 10524 10541 10556 10575 10591 10599 10608 10618 10628 10639 10649 10657 10665 10673 10682 10688 10692 10697 10698
10266 10270 10274 10296 10292 10305 10312 10321 10332 10345 10360 10371 10396 10401 10428 10423 10426 10429 10431 10436 10443 10448 10462 10478 10494 10504 10517 10534 10553 10568 10581 10591 10599 10613 10624 10634 10644 10652 10662 10669 10674 10679 10684 10687
10237 10243 10253 10268 10274 10283 10291 10305 10313 10329 10344 10372 10362 10376 10407 10398 10400 10402 10401 10415 10425 10437 10455 10470 10484 10493 10504 10519 10536 10547 10563 10569 10579 10594 10607 10619 10629 10639 10648 10656 10662 10669 10673 10676
10210 10224 10233 10251 10258 10259 10267 10282 10295 10312 10329 10330 10338 10361 10379 10379 10374 10367 10385 10403 10417 10430 10444 10459 10472 10481 10493 10506 10522 10535 10544 10551 10568 10578 10590 10603 10614 10625 10634 10642 10649 10655 10660 10665
10188 10201 10211 10229 10231 10239 10257 10273 10288 10295 10309 10319 10336 10350 10353 10352 10345 10358 10378 10389 10405 10415 10426 10440 10451 10461 10479 10490 10503 10521 10532 10539 10550 10562 10574 10588 10600 10611 10619 10627 10636 10642 10647 10652
10167 10182 10193 10198 10210 10231 10246 10256 10263 10284 10297 10309 10318 10332 10335 10322 10325 10350 10366 10380 10390 10400 10412 10427 10441 10451 10462 10472 10487 10500 10516 10529 10538 10549 10562 10573 10585 10595 10604 10613 10622 10629 10635 10637
10148 10160 10167 10184 10206 10213 10223 10238 10255 10266 10281 10291 10300 10312 10298 10299 10324 10341 10351 10364 10377 10387 10398 10411 10426 10435 10448 10459 10472 10489 10502 10513 10523 10537 10550 10560 10574 10585 10593 10601 10610 10616 10620 10623
10128 10139 10149 10172 10174 10195 10211 10226 10241 10256 10264 10273 10284 10283 10285 10297 10317 10327 10338 10351 10363 10374 10386 10396 10408 10417 10433 10449 10462 10476 10488 10501 10514 10526 10536 10547 10562 10573 10581 10589 10596 10601 10606 10609
10117 10124 10135 10146 10158 10176 10195 10214 10227 10239 10253 10266 10278 10272 10275 10291 10305 10313 10323 10336 10350 10362 10373 10382 10393 10406 10417 10437 10450 10463 10474 10487 10500 10512 10523 10537 10549 10558 10568 10576 10582 10588 10592 10595
10103 10109 10119 10128 10150 10175 10192 10208 10224 10237 10249 10257 10259 10260 10275 10283 10295 10302 10313 10327 10339 10348 10358 10368 10378 10387 10400 10416 10430 10448 10461 10475 10488 10502 10512 10524 10535 10544 10551 10557 10565 10570 10575 10579
10091 10099 10109 10123 10145 10164 10181 10199 10212 10222 10234 10248 10240 10255 10262 10271 10281 10290 10300 10318 10329 10338 10349 10358 10367 10376 10386 10399 10415 10431 10450 10464 10477 10489 10502 10514 10524 10533 10540 10548 10553 10557 10561 10565
10082 10090 10102 10117 10138 10157 10174 10186 10197 10209 10223 10224 10237 10243 10256 10261 10268 10276 10292 10309 10320 10325 10336 10346 10357 10366 10377 10389 10405 10422 10437 10455 10468 10480 10491 10504 10513 10522 10529 10535 10540 10544 10548 10551
10072 10084 10095 10113 10132 10149 10160 10170 10182 10197 10204 10210 10227 10220 10233 10246 10260 10274 10289 10303 10310 10314 10325 10335 10344 10354 10365 10378 10397 10409 10431 10447 10460 10472 10483 10495 10504 10510 10517 10522 10527 10530 10534 10537
10063 10080 10090 10107 10123 10136 10148 10163 10176 10184 10193 10201 10202 10214 10228 10243 10258 10268 10281 10292 10302 10310 10318 10327 10334 10341 10350 10366 10386 10404 10421 10438 10450 10461 10473 10486 10493 10500 10505 10508 10513 10516 10520 10523
10058 10072 10085 10100 10115 10126 10146 10158 10168 10176 10189 10195 10207 10218 10231 10245 10256 10263 10274 10285 10295 10301 10310 10318 10322 10329 10339 10354 10377 10392 10412 10426 10440 10450 10465 10477 10485 10489 10492 10495 10500 10501 10505 10508
10051 10065 10082 10094 10103 10125 10139 10148 10156 10169 10181 10190 10202 10215 10229 10239 10246 10259 10271 10279 10287 10296 10301 10307 10313 10321 10329 10344 10366 10381 10401 10421 10434 10449 10459 10464 10470 10477 10478 10480 10484 10488 10491 10491
10041 10053 10065 10077 10100 10119 10130 10143 10152 10162 10174 10185 10197 10212 10226 10236 10249 10258 10268 10274 10280 10288 10291 10297 10304 10312 10323 10337 10356 10371 10391 10410 10429 10438 10444 10450 10458 10461 10463 10466 10472 10474 10476 10476
10036 10044 10057 10070 10092 10109 10122 10133 10145 10160 10173 10182 10194 10208 10222 10235 10245 10251 10258 10266 10273 10279 10284 10289 10296 10305 10315 10331 10349 10367 10385 10401 10415 10418 10429 10435 10441 10446 10450 10454 10459 10462 10461 10460
10036 10047 10061 10072 10089 10105 10118 10130 10145 10158 10169 10179 10192 10207 10218 10228 10239 10247 10253 10260 10265 10272 10277 10282 10288 10298 10310 10323 10338 10357 10374 10387 10399 10409 10415 10422 10427 10431 10437 10442 10443 10442 10443 10441
10034 10048 10056 10069 10087 10103 10115 10127 10142 10155 10168 10179 10193 10205 10215 10224 10235 10242 10249 10253 10259 10266 10271 10277 10284 10295 10307 10319 10332 10347 10365 10375 10382 10391 10398 10407 10412 10418 10422 10425 10424 10426 10422 10422
10031 10044 10054 10065 10081 10094 10111 10128 10143 10155 10166 10180 10192 10202 10212 10219 10230 10237 10243 10248 10253 10258 10265 10272 10281 10291 10303 10314 10325 10337 10353 10362 10373 10383 10388 10396 10401 10402 10406 10407 10407 10405 10403 10400
10028 10037 10054 10068 10082 10097 10113 10127 10142 10155 10168 10180 10189 10198 10208 10216 10225 10232 10238 10243 10247 10252 10258 10267 10275 10286 10297 10305 10315 10325 10339 10349 10358 10365 10373 10375 10377 10378 10385 10384 10385 10383 10378 10380